User: anonymous
Location: Melbourne
(37.8170°S, 144.9670°E)
Time: 22:07:31
(UTC+10:00)
Language:

Aureole 2 Rocket - Orbit

View from above orbital plane
View from above orbital plane
View from above satellite
View from above satellite

Ground track
Ground track

The orbit data is extracted from the following two-line orbital elements,

1 07004U 73107B   14264.09725704  .00025358  00000-0  67090-3 0  7288
2 07004 073.9503 029.5186 0292104 151.3166 266.2082 15.04902660 84788
Epoch (UTC): 21 September 2014 02:20:03
Eccentricity: 0.0292104
inclination: 73.9503°
perigee height: 349 km
apogee height: 754 km
right ascension of ascending node: 29.5186°
argument of perigee: 151.3166°
revolutions per day: 15.04902660
mean anomaly at epoch: 266.2082°
orbit number at epoch: 8478

The dashed part of the orbit path shows where the satellite is in the earth's shadow,  

DLR